Bandar Lengeh, Iran

6:53 PM +0430 on April 30, 2017 (GMT +0430)
Bandar Lengeh

Weather History for OIBL - October, 2012

Change the Weather History Date:

Saturday, October 6, 2012

  Actual Average Record
Temperature  
Mean Temperature 88 °F -  
Max Temperature 98 °F 90 °F - ()
Min Temperature 78 °F 72 °F - ()
Cooling Degree Days 23    
Growing Degree Days 38 (Base 50)    
Moisture  
Dew Point 71 °F    
Average Humidity 58    
Maximum Humidity 78    
Minimum Humidity 25    
Precipitation  
Precipitation 0.00 in 0.00 in - ()
Sea Level Pressure  
Sea Level Pressure 29.81 in    
Wind  
Wind Speed 5 mph ()    
Max Wind Speed 12 mph    
Max Gust Speed -    
Visibility 4.2 miles    
Events      
T = Trace of Precipitation, MM = Missing Value Source: Averaged Metar Reports

Daily Weather History Graph

Daily Weather History Graph

Search for Another Location

Airport or City:

Trip Planner

Search our weather history database for the weather conditions in past years. The results will help you decide how hot, cold, wet, or windy it might be!

Date:

Astronomy

Oct. 06, 2012 Rise Set
Actual Time 5:45 AM +0330 5:31 PM +0330
Civil Twilight 5:22 AM +0330 5:54 PM +0330
Nautical Twilight 4:55 AM +0330 6:21 PM +0330
Astronomical Twilight 4:28 AM +0330 6:48 PM +0330
Moon 9:50 PM +0330 (10/6) 10:56 AM +0330 (10/6)
Length of Visible Light 12h 32m
Length of Day
11h 46m
Waning Gibbous, 68% of the Moon is Illuminated
Oct 6
Waning Gibbous
Oct 8
Last Quarter
Oct 15
New
Oct 22
First Quarter
Oct 29
Full

Hourly Weather History & Observations

Time (+0330) Temp. Heat Index Dew Point Humidity Pressure Visibility Wind Dir Wind Speed Gust Speed Precip Events Conditions
12:20 AM 82.4 °F 86.3 °F 69.8 °F 66% 29.74 in 5.0 mi NNW 4.6 mph - N/A   Clear
12:30 AM 82.4 °F 86.3 °F 69.8 °F 66% 29.74 in 5.0 mi NNW 4.6 mph - N/A   Clear
3:20 AM 80.6 °F 83.9 °F 69.8 °F 70% 29.74 in 5.0 mi North 6.9 mph - N/A   Clear
3:30 AM 81 °F - 70 °F 61% 29.77 in 5 mi North 6.7 mph - -   Haze
3:30 AM 80.6 °F 83.9 °F 69.8 °F 70% 29.74 in 5.0 mi North 6.9 mph - N/A   Clear
5:20 AM 78.8 °F - 71.6 °F 78% 29.80 in 5.0 mi NNE 6.9 mph - N/A   Clear
5:30 AM 78.8 °F - 71.6 °F 78% 29.80 in 5.0 mi NNE 6.9 mph - N/A   Clear
6:20 AM 80.6 °F 84.6 °F 71.6 °F 74% 29.80 in 3.1 mi NE 6.9 mph - N/A   Haze
6:30 AM 80.6 °F 84.6 °F 71.6 °F 74% 29.80 in 3.1 mi NE 6.9 mph - N/A   Haze
8:20 AM 87.8 °F 95.6 °F 73.4 °F 62% 29.83 in 3.1 mi East 11.5 mph - N/A   Haze
8:30 AM 87.8 °F 95.6 °F 73.4 °F 62% 29.83 in 3.1 mi East 11.5 mph - N/A   Haze
9:30 AM 90 °F - 73 °F 49% 29.87 in 3 mi East 8.9 mph - -   Haze
9:30 AM 89.6 °F 98.2 °F 73.4 °F 59% 29.86 in 3.1 mi East 9.2 mph - N/A   Haze
10:30 AM 91.4 °F 96.8 °F 69.8 °F 49% 29.86 in 3.1 mi East 11.5 mph - N/A   Haze
11:30 AM 93.2 °F 98.8 °F 69.8 °F 46% 29.86 in 3.1 mi SE 11.5 mph - N/A   Haze
12:20 PM 93.2 °F 98.8 °F 69.8 °F 46% 29.83 in 4.3 mi SSE 4.6 mph - N/A   Clear
12:30 PM 93.2 °F 98.8 °F 69.8 °F 46% 29.83 in 4.3 mi SSE 4.6 mph - N/A   Clear
1:20 PM 93.2 °F 98.8 °F 69.8 °F 46% 29.83 in 4.3 mi South 9.2 mph - N/A   Clear
2:20 PM 93.2 °F 100.5 °F 71.6 °F 49% 29.80 in 4.3 mi South 6.9 mph - N/A   Clear
2:30 PM 93.2 °F 100.5 °F 71.6 °F 49% 29.80 in 4.3 mi South 6.9 mph - N/A   Clear
3:20 PM 93.2 °F 94.9 °F 64.4 °F 38% 29.80 in 4.3 mi South 2.3 mph - N/A   Clear
3:30 PM 98 °F - 65 °F 25% 29.82 in 4 mi South 4.5 mph - -   Haze
3:30 PM 93.2 °F 94.9 °F 64.4 °F 38% 29.80 in 4.3 mi South 2.3 mph - N/A   Clear
4:20 PM 91.4 °F 100.1 °F 73.4 °F 55% 29.80 in 5.0 mi SSW 6.9 mph - N/A   Clear
4:30 PM 91.4 °F 100.1 °F 73.4 °F 55% 29.80 in 5.0 mi SSW 6.9 mph - N/A   Clear
5:20 PM 89.6 °F 102.2 °F 77.0 °F 66% 29.80 in 4.3 mi West 6.9 mph - N/A   Clear
5:30 PM 89.6 °F 102.2 °F 77.0 °F 66% 29.80 in 4.3 mi West 6.9 mph - N/A   Clear
6:20 PM 89.6 °F 98.2 °F 73.4 °F 59% 29.80 in 4.3 mi West 6.9 mph - N/A   Clear
6:30 PM 89.6 °F 98.2 °F 73.4 °F 59% 29.80 in 4.3 mi West 6.9 mph - N/A   Clear
7:20 PM 87.8 °F 93.8 °F 71.6 °F 58% 29.80 in 4.3 mi Calm Calm - N/A   Clear
7:30 PM 87.8 °F 93.8 °F 71.6 °F 58% 29.80 in 4.3 mi Calm Calm - N/A   Clear
8:20 PM 86.0 °F 91.8 °F 71.6 °F 62% 29.80 in 5.0 mi Calm Calm - N/A   Clear
8:30 PM 86.0 °F 91.8 °F 71.6 °F 62% 29.80 in 5.0 mi Calm Calm - N/A   Clear
9:20 PM 86.0 °F 91.8 °F 71.6 °F 62% 29.83 in 4.3 mi Calm Calm - N/A   Clear
9:30 PM 86 °F - 72 °F 55% 29.85 in 4 mi Calm Calm - -   Haze
9:30 PM 86.0 °F 91.8 °F 71.6 °F 62% 29.83 in 4.3 mi Calm Calm - N/A   Clear